Simultaneous Nadir Overpasses (SNOs) Predictions

Prediction of SNOs between GOES-15 and NPP Satellite Orbit:

Table of predicted SNOs for the next 14.0 days since TLE Epoch: 12/30/2016
Index Date Time (GOES-15) GOES-15 Lat,Lon NPP Lat,Lon Distance(km) Time Diff (sec)
1 12/31/2016 10:15:10 -0.06,-134.75 -0.61,-132.28 281.49 80
2 01/01/2017 22:34:26 0.07,-134.66 -0.59,-137.57 332.66 80
3 01/02/2017 22:18:20 0.06,-134.61 0.39,-133.04 179.08 80
4 01/04/2017 10:37:28 -0.07,-134.56 0.74,-138.32 427.26 80
5 01/05/2017 10:21:23 -0.07,-134.51 -0.24,-133.78 84.06 80
6 01/07/2017 22:21:53 0.07,-134.36 0.03,-134.54 20.35 80
7 01/08/2017 22:05:47 0.06,-134.31 1.02,-130.00 490.38 80
8 01/10/2017 10:24:55 -0.06,-134.24 0.17,-135.27 117.38 80
9 01/11/2017 10:08:49
